DW8454 Weather Reports


time (UTC)temp
C
wind
direction
speed
KPH
gust
KPH
rain 1hr
cm
rain 24hr
cm
rain mn
cm
humidity
%
barometer
mb
20260503210907 15 244 0.0 0.0 0.00 0.00 0.00 43 1011.3
20260503205901 15 244 0.0 0.0 0.00 0.00 0.00 42 1011.3
20260503204840 15 259 0.0 0.0 0.00 0.00 0.00 42 1011.4
20260503202715 16 272 0.0 0.0 0.00 0.00 0.00 41 1011.5
20260503200421 16 162 0.0 0.0 0.00 0.00 0.00 42 1011.7
20260503195439 16 230 0.0 0.0 0.00 0.00 0.00 40 1011.9
20260503193315 16 275 0.0 0.0 0.00 0.00 0.00 41 1012.2
20260503191132 16 240 0.0 0.0 0.00 0.00 0.00 42 1012.5
20260503185055 16 242 0.0 0.0 0.00 0.00 0.00 42 1012.9
20260503184047 16 226 0.0 0.0 0.00 0.00 0.00 42 1012.9
20260503183016 16 250 0.0 0.0 0.00 0.00 0.00 42 1013.0
20260503182034 16 247 0.0 0.0 0.00 0.00 0.00 42 1013.2
20260503181049 16 247 0.0 0.0 0.00 0.00 0.00 42 1013.2
20260503180046 16 267 0.0 0.0 0.00 0.00 0.00 44 1013.4
20260503175045 16 225 0.0 0.0 0.00 0.00 0.00 42 1013.6
20260503174102 16 245 0.0 0.0 0.00 0.00 0.00 44 1013.7
20260503173103 16 246 0.0 0.0 0.00 0.00 0.00 44 1013.9
20260503172116 16 290 0.0 0.0 0.00 0.00 0.00 44 1014.0
20260503171113 15 256 0.0 0.0 0.00 0.00 0.00 47 1014.1
20260503150913 13 286 0.0 0.0 0.00 0.00 0.00 50 1015.2
20260503130635 8 244 0.0 0.0 0.00 0.00 0.00 59 1016.0
20260503110504 2 201 0.0 0.0 0.00 0.00 0.00 78 1015.9
20260503080803 2 205 0.0 0.0 0.00 0.00 0.00 81 1015.7
20260503072528 3 205 0.0 0.0 0.00 0.00 0.00 83 1015.7
20260503071533 3 205 0.0 0.0 0.00 0.00 0.00 83 1015.7
20260503070531 3 205 0.0 0.0 0.00 0.00 0.00 83 1015.7
20260503060330 3 195 0.0 0.0 0.00 0.00 0.00 82 1015.9
20260503054250 3 200 0.0 0.0 0.00 0.03 0.00 81 1016.1
20260503053222 3 196 0.0 0.0 0.00 1.09 0.00 81 1016.1
20260503051054 3 202 0.0 0.0 0.00 1.09 0.00 80 1016.1
20260503050030 3 197 0.0 0.0 0.00 1.09 0.00 79 1016.2
20260503045037 4 197 0.0 0.0 0.00 1.09 0.00 78 1016.2
20260503044058 4 197 0.0 0.0 0.00 1.09 0.00 77 1016.3
20260503043053 4 197 0.0 0.0 0.00 1.09 0.00 76 1016.3
20260503042038 5 197 0.0 0.0 0.00 1.09 0.00 75 1016.3
20260503041057 5 197 0.0 0.0 0.00 1.09 0.00 75 1016.3
20260503031554 6 204 0.0 0.0 0.00 1.09 1.09 70 1016.5
20260503024326 6 198 0.0 0.0 0.00 1.09 1.09 68 1016.7
20260503023324 6 185 0.0 0.0 0.00 1.09 1.09 67 1016.7
20260503022316 6 192 0.0 0.0 0.00 1.09 1.09 66 1016.8
20260503021313 6 204 0.0 0.0 0.00 1.09 1.09 66 1016.7
20260503020331 6 197 0.0 0.0 0.00 1.09 1.09 65 1016.7
20260503015347 6 194 0.0 0.0 0.00 1.09 1.09 65 1016.7
20260503014337 6 197 0.0 0.0 0.00 1.09 1.09 64 1016.7
20260503013400 6 197 0.0 0.0 0.00 1.09 1.09 65 1016.7
20260503012423 6 197 0.0 0.0 0.00 1.09 1.09 64 1016.6
20260503011406 6 254 0.0 0.0 0.00 1.09 1.09 77 1016.6
20260503010344 6 254 0.0 0.0 0.00 1.09 1.09 72 1016.5
20260503005409 6 279 0.0 0.0 0.00 1.09 1.09 70 1016.6
20260503004405 6 280 0.0 0.0 0.00 1.09 1.09 70 1016.5
20260503003409 6 280 0.0 0.0 0.00 1.09 1.09 69 1016.4
20260503002429 6 281 0.0 0.0 0.00 1.09 1.09 70 1016.4
20260503001436 6 284 0.0 0.0 0.00 1.09 1.09 67 1016.5
20260503000447 6 271 0.0 0.0 0.00 1.09 1.09 67 1016.4
20260502235451 6 309 0.0 0.0 0.00 1.09 1.09 66 1016.4
20260502234457 6 309 0.0 0.0 0.00 1.09 1.09 66 1016.4
20260502232338 6 304 0.0 0.0 0.00 1.09 1.09 65 1016.4
20260502231312 6 331 0.0 0.0 0.00 1.09 1.09 68 1016.4
20260502230315 6 306 0.0 0.0 0.00 1.09 1.09 67 1016.5
20260502225250 6 309 0.0 0.0 0.00 1.09 1.09 66 1016.5
20260502224245 6 309 0.0 11.3 0.00 1.09 1.09 64 1016.5
20260502222201 6 305 0.0 0.0 0.00 1.09 1.09 60 1016.6
20260502221210 7 309 0.0 0.0 0.00 1.09 1.09 58 1016.6
20260502220223 7 315 0.0 0.0 0.00 1.09 1.09 59 1016.6
20260502215247 7 324 0.0 0.0 0.00 1.09 1.09 61 1016.6
20260502214311 7 302 0.0 0.0 0.00 1.09 1.09 59 1016.6
20260502213250 7 318 0.0 0.0 0.00 1.09 1.09 59 1016.5
20260502212251 7 296 0.0 0.0 0.00 1.09 1.09 60 1016.6